Location: Warner Observatory
(35.1353°N, 89.5455°W)
Time: 08:09:18
(UTC-05:00)

Amateur Radio Satellites - All Passes

Search period start: 30 July 2014 07:39
Search period end: 31 July 2014 07:39
Location: Warner Observatory, 35.1353°N, 89.5455°W

Satellite Date Start Highest point End Downlink Frequencies (MHz)
Time Altitude Azimuth
PANSAT 30 Jul 07:42:08 07:45:13 23° 192° (SSW) 07:48:18 not established
SO-67 30 Jul 07:53:04 07:56:28 51° 100° (E) 07:59:51 435.3500 MHz FM
Hamsat 30 Jul 08:21:06 08:22:29 11° 294° (WNW) 08:23:51 145.90 MHz
KITSAT 1 30 Jul 08:33:59 08:38:49 17° 320° (NW) 08:43:40 435.175 FM
PCSat 30 Jul 08:37:34 08:40:07 13° 47° (NE) 08:42:38 145.825 MHz
JAS-2 30 Jul 08:40:34 08:44:22 18° 297° (WNW) 08:47:57 435.800 - 435.900 CW/SSB, 435.910 FM
Saudisat 1A 30 Jul 08:58:33 09:00:16 12° 315° (NW) 09:01:59 436.775 MHz
UKube-1 30 Jul 09:06:39 09:07:21 10° 92° (E) 09:08:03 145.840 MHz, 145.915 MHz
HO-68 30 Jul 09:40:52 09:47:46 50° 101° (E) 09:54:38 435.675 MHz FM
Sapphire 30 Jul 09:45:40 09:50:51 44° 59° (ENE) 09:56:00 437.095 MHz 1200 baud AX-25 AFSK
Oscar 11 30 Jul 09:48:14 09:51:09 18° 94° (E) 09:54:04 145.825 FM, Beacon 2401.500 USB
FUNcube-1 30 Jul 10:14:52 10:16:09 11° 92° (E) 10:17:26 145.950 - 145.970 MHz USB
PCSat 30 Jul 10:18:47 10:24:14 87° 245° (WSW) 10:29:38 145.825 MHz
UKube-1 30 Jul 10:39:35 10:43:51 55° 286° (WNW) 10:48:04 145.840 MHz, 145.915 MHz
Oscar 11 30 Jul 11:23:30 11:27:23 33° 288° (WNW) 11:31:16 145.825 FM, Beacon 2401.500 USB
RS-15 30 Jul 11:25:16 11:31:37 17° 100° (E) 11:37:49 29.354 - 29.394 USB, Beacon 29.352 USB
HO-68 30 Jul 11:29:16 11:35:05 28° 297° (WNW) 11:40:53 435.675 MHz FM
Sapphire 30 Jul 11:29:56 11:33:55 21° 254° (WSW) 11:37:53 437.095 MHz 1200 baud AX-25 AFSK
FUNcube-1 30 Jul 11:48:44 11:52:46 47° 286° (WNW) 11:56:50 145.950 - 145.970 MHz USB
SO-50 30 Jul 12:16:30 12:20:56 89° 119° (ESE) 12:25:29 436.795 FM
Oscar 19 30 Jul 12:37:00 12:40:03 16° 65° (ENE) 12:43:06 437.125 CW, 437.150 USB
Oscar 16 30 Jul 13:03:59 13:08:27 31° 70° (ENE) 13:12:56 437.025 USB, Beacon 2401.1428
JAS-1B 30 Jul 13:28:14 13:35:28 28° 59° (ENE) 13:43:12 435.800 - 435.900 CW/SSB
ITAMSAT 1 30 Jul 13:28:33 13:32:39 24° 67° (ENE) 13:36:46 435.822 SSB
RS-15 30 Jul 13:31:07 13:42:21 87° 117° (ESE) 13:53:19 29.354 - 29.394 USB, Beacon 29.352 USB
Uribyol 2 30 Jul 13:46:48 13:51:34 38° 71° (ENE) 13:56:21 436.500 FM
AO-27 30 Jul 13:47:24 13:52:10 37° 71° (ENE) 13:56:57 436.795 MHz FM
TMSAT-1 30 Jul 13:56:24 13:58:32 12° 63° (ENE) 14:00:39 436.925 FM
SO-50 30 Jul 14:01:14 14:02:10 11° 317° (NW) 14:03:06 436.795 FM
UOSAT-12 30 Jul 14:08:32 14:13:06 87° 119° (ESE) 14:17:48 437.025 FM, 437.400 FM
Oscar 19 30 Jul 14:13:56 14:18:54 53° 260° (W) 14:23:55 437.125 CW, 437.150 USB
AO-Echo 30 Jul 14:17:15 14:22:32 76° 75° (ENE) 14:27:52 ?
Gurwin Techsat 1B 30 Jul 14:19:01 14:23:34 30° 69° (ENE) 14:28:07 435.225 FM
KITSAT 1 30 Jul 14:31:09 14:38:18 33° 51° (NE) 14:45:23 435.175 FM
Oscar 16 30 Jul 14:43:34 14:47:46 26° 264° (W) 14:51:59 437.025 USB, Beacon 2401.1428
ITAMSAT 1 30 Jul 15:07:10 15:11:55 36° 262° (W) 15:16:41 435.822 SSB
JAS-1B 30 Jul 15:16:13 15:24:55 72° 258° (WSW) 15:34:45 435.800 - 435.900 CW/SSB
Uribyol 2 30 Jul 15:27:11 15:31:07 22° 265° (W) 15:35:03 436.500 FM
AO-27 30 Jul 15:27:43 15:31:44 22° 265° (W) 15:35:46 436.795 MHz FM
TMSAT-1 30 Jul 15:32:29 15:37:46 74° 258° (WSW) 15:43:05 436.925 FM
AO-7 30 Jul 15:35:58 15:43:34 41° 64° (ENE) 15:51:11 29.400 - 29.500 MHz
Saudisat 1A 30 Jul 15:46:05 15:49:42 24° 52° (NE) 15:53:18 436.775 MHz
RS-15 30 Jul 15:47:15 15:56:06 27° 321° (NW) 16:04:57 29.354 - 29.394 USB, Beacon 29.352 USB
UOSAT-12 30 Jul 15:52:21 15:53:55 12° 316° (NW) 15:55:29 437.025 FM, 437.400 FM
Gurwin Techsat 1B 30 Jul 15:58:52 16:03:26 29° 263° (W) 16:08:01 435.225 FM
AO-Echo 30 Jul 16:00:31 16:01:46 11° 270° (W) 16:03:02 ?
Uosat F 30 Jul 16:16:05 16:21:04 65° 74° (ENE) 16:26:04 435.120 FM
KITSAT 1 30 Jul 16:26:10 16:33:55 53° 249° (WSW) 16:41:38 435.175 FM
JAS-2 30 Jul 17:02:39 17:08:01 21° 64° (ENE) 17:13:09 435.800 - 435.900 CW/SSB, 435.910 FM
JAS-1B 30 Jul 17:13:41 17:17:00 12° 277° (W) 17:20:27 435.800 - 435.900 CW/SSB
OPAL 30 Jul 17:16:50 17:21:57 82° 286° (WNW) 17:27:06 ?
Saudisat 1A 30 Jul 17:25:26 17:29:15 29° 248° (WSW) 17:33:03 436.775 MHz
AO-7 30 Jul 17:28:31 17:36:13 41° 260° (W) 17:44:00 29.400 - 29.500 MHz
Hamsat 30 Jul 17:33:37 17:37:03 25° 71° (ENE) 17:40:31 145.90 MHz
Uosat F 30 Jul 17:58:29 18:00:14 12° 268° (W) 18:01:59 435.120 FM
RS-15 30 Jul 18:11:09 18:14:16 11° 356° (N) 18:17:23 29.354 - 29.394 USB, Beacon 29.352 USB
SO-67 30 Jul 18:25:34 18:26:32 11° 68° (ENE) 18:27:32 435.3500 MHz FM
JAS-2 30 Jul 18:44:32 18:52:22 74° 258° (WSW) 18:59:45 435.800 - 435.900 CW/SSB, 435.910 FM
Hamsat 30 Jul 19:09:47 19:12:57 21° 265° (W) 19:16:09 145.90 MHz
STRAND 1 30 Jul 19:43:00 19:48:07 77° 103° (ESE) 19:53:12 ?
SO-67 30 Jul 19:56:06 19:59:15 33° 262° (W) 20:02:26 435.3500 MHz FM
HO-68 30 Jul 20:06:48 20:12:38 28° 63° (ENE) 20:18:27 435.675 MHz FM
RS-15 30 Jul 20:25:06 20:33:04 22° 34° (NE) 20:41:10 29.354 - 29.394 USB, Beacon 29.352 USB
JAS-2 30 Jul 20:36:16 20:38:06 11° 271° (W) 20:39:55 435.800 - 435.900 CW/SSB, 435.910 FM
SO-50 30 Jul 20:51:15 20:55:36 34° 54° (NE) 20:59:59 436.795 FM
MaSat-1 30 Jul 21:11:37 21:15:32 64° 295° (WNW) 21:20:09 437.345 MHz
STRAND 1 30 Jul 21:25:09 21:26:36 11° 298° (WNW) 21:28:03 ?
AO-40 30 Jul 21:27:28 03:56:07 45° 183° (S) 20:18:58 Beacon 2401.320
UKube-1 30 Jul 21:31:37 21:35:58 84° 76° (ENE) 21:40:22 145.840 MHz, 145.915 MHz
ISS 30 Jul 21:50:24 21:53:02 22° 130° (SE) 21:55:42 145.800 FM
HO-68 30 Jul 21:53:00 21:59:55 51° 259° (W) 22:06:52 435.675 MHz FM
Oscar 11 30 Jul 22:14:49 22:19:04 64° 259° (W) 22:23:21 145.825 FM, Beacon 2401.500 USB
SO-50 30 Jul 22:32:09 22:35:59 24° 249° (WSW) 22:39:50 436.795 FM
RS-15 30 Jul 22:36:31 22:47:38 75° 59° (ENE) 22:59:10 29.354 - 29.394 USB, Beacon 29.352 USB
UOSAT-12 30 Jul 22:41:32 22:45:45 31° 53° (NE) 22:49:55 437.025 FM, 437.400 FM
FUNcube-1 30 Jul 22:41:43 22:46:03 88° 74° (ENE) 22:50:19 145.950 - 145.970 MHz USB
PCSat 30 Jul 23:15:51 23:19:35 19° 105° (ESE) 23:23:20 145.825 MHz
ISS 30 Jul 23:26:39 23:29:38 30° 325° (NW) 23:32:38 145.800 FM
UOSAT-12 31 Jul 00:21:55 00:25:45 25° 249° (WSW) 00:29:32 437.025 FM, 437.400 FM
Sapphire 31 Jul 00:23:55 00:29:18 80° 114° (ESE) 00:34:43 437.095 MHz 1200 baud AX-25 AFSK
RS-15 31 Jul 00:50:26 00:58:55 26° 257° (WSW) 01:07:42 29.354 - 29.394 USB, Beacon 29.352 USB
PCSat 31 Jul 00:57:22 01:02:34 48° 300° (WNW) 01:07:49 145.825 MHz
Oscar 16 31 Jul 01:20:10 01:22:53 14° 92° (E) 01:25:35 437.025 USB, Beacon 2401.1428
Uribyol 2 31 Jul 02:03:47 02:07:10 17° 94° (E) 02:10:31 436.500 FM
AO-27 31 Jul 02:04:44 02:08:04 17° 94° (E) 02:11:22 436.795 MHz FM
Sapphire 31 Jul 02:10:31 02:13:21 14° 312° (NW) 02:16:12 437.095 MHz 1200 baud AX-25 AFSK
Oscar 19 31 Jul 02:28:35 02:33:46 72° 102° (ESE) 02:38:55 437.125 CW, 437.150 USB
AO-Echo 31 Jul 02:28:43 02:33:07 31° 96° (E) 02:37:22 ?
Gurwin Techsat 1B 31 Jul 02:39:33 02:42:31 15° 92° (E) 02:45:28 435.225 FM
OPAL 31 Jul 02:53:19 02:55:31 13° 61° (ENE) 02:57:44 ?
Oscar 16 31 Jul 02:57:28 03:02:31 56° 287° (WNW) 03:07:35 437.025 USB, Beacon 2401.1428
JAS-1B 31 Jul 03:07:31 03:16:15 50° 97° (E) 03:23:36 435.800 - 435.900 CW/SSB
ITAMSAT 1 31 Jul 03:22:49 03:28:00 77° 285° (WNW) 03:33:08 435.822 SSB
Uribyol 2 31 Jul 03:41:54 03:46:49 46° 288° (WNW) 03:51:43 436.500 FM
AO-27 31 Jul 03:42:49 03:47:47 47° 288° (WNW) 03:52:43 436.795 MHz FM
AO-7 31 Jul 03:43:51 03:47:32 13° 91° (E) 03:51:11 29.400 - 29.500 MHz
TMSAT-1 31 Jul 03:51:41 03:56:55 58° 101° (E) 04:02:06 436.925 FM
PANSAT 31 Jul 03:57:45 04:00:45 21° 167° (SSE) 04:03:45 not established
AO-Echo 31 Jul 04:07:41 04:11:42 25° 292° (WNW) 04:15:36 ?
Oscar 19 31 Jul 04:10:23 04:12:27 12° 297° (WNW) 04:14:31 437.125 CW, 437.150 USB
Gurwin Techsat 1B 31 Jul 04:17:36 04:22:47 56° 287° (WNW) 04:27:57 435.225 FM
ISS 31 Jul 04:22:23 04:23:40 12° 25° (NNE) 04:24:57 145.800 FM
Uosat F 31 Jul 04:27:43 04:31:51 26° 96° (E) 04:35:58 435.120 FM
OPAL 31 Jul 04:28:56 04:33:49 65° 256° (WSW) 04:38:45 ?
KITSAT 1 31 Jul 04:56:10 05:03:07 33° 107° (ESE) 05:10:05 435.175 FM
JAS-1B 31 Jul 04:58:24 05:06:17 34° 298° (WNW) 05:13:11 435.800 - 435.900 CW/SSB
AO-7 31 Jul 05:32:54 05:41:16 85° 107° (ESE) 05:49:34 29.400 - 29.500 MHz
TMSAT-1 31 Jul 05:33:16 05:36:17 16° 296° (WNW) 05:39:18 436.925 FM
MaSat-1 31 Jul 05:33:55 05:37:26 18° 54° (NE) 05:40:50 437.345 MHz
PANSAT 31 Jul 05:37:05 05:40:31 30° 180° (S) 05:43:56 not established
Saudisat 1A 31 Jul 05:51:40 05:53:31 13° 108° (ESE) 05:55:22 436.775 MHz
ISS 31 Jul 05:57:31 06:00:53 75° 42° (NE) 06:04:13 145.800 FM
JAS-2 31 Jul 06:01:19 06:04:15 14° 90° (E) 06:07:05 435.800 - 435.900 CW/SSB, 435.910 FM
Uosat F 31 Jul 06:06:14 06:10:35 30° 291° (WNW) 06:14:54 435.120 FM
KITSAT 1 31 Jul 06:50:23 06:58:10 50° 304° (WNW) 07:06:00 435.175 FM
STRAND 1 31 Jul 06:55:38 07:00:47 80° 75° (ENE) 07:05:56 ?
Hamsat 31 Jul 06:57:22 07:01:43 84° 102° (ESE) 07:06:03 145.90 MHz
MaSat-1 31 Jul 07:10:03 07:15:11 56° 251° (WSW) 07:19:54 437.345 MHz
PANSAT 31 Jul 07:17:14 07:20:17 22° 192° (SSW) 07:23:19 not established
SO-67 31 Jul 07:23:33 07:26:06 19° 95° (E) 07:28:38 435.3500 MHz FM
AO-7 31 Jul 07:27:34 07:33:01 20° 305° (NW) 07:38:28 29.400 - 29.500 MHz
Saudisat 1A 31 Jul 07:28:17 07:32:36 54° 302° (WNW) 07:36:57 436.775 MHz
